[[{"header":{"parameterUnit":"m.s-1","parameterCategory":1,"la1":30.2991,"la2":30.254,"lo1":-89.0895,"lo2":-89.0444,"dy":0.0017,"dx":0.0017,"nx":28,"ny":28,"refTime":"2025-06-09T03:00:00:Z","depth":0,"parameterNumber":2,"parameterNumberName":"U-component_of_WINDS"},"data":[0,0,0,0,0,0,0,0,0,0,0,0,0,0,0,0,0,0,0,0,0,0,0,0,0,0,0,0,0,0,0,0,0,0,0,0,0,0,0,0,0,0,0,0,0,0,0,0,0,0,0,0,0,0,0,0,0,0,3.4953,3.4954,0,3.5046,3.5047,3.5048,3.4945,3.4941,3.4937,3.4933,3.5035,3.5041,3.5048,0,0,0,0,0,0,0,0,0,0,0,0,0,3.469,3.4695,3.4953,3.4954,3.4955,3.5046,3.5047,3.5049,3.4946,3.4941,3.4936,3.4931,3.5033,3.504,3.5048,0,0,0,0,0,0,0,0,0,0,0,0,0,3.4796,3.4697,3.4952,3.4914,3.4912,3.5046,3.5048,3.5049,3.4947,3.4941,3.4935,3.4929,3.503,3.504,3.5049,3.5227,0,0,3.5078,3.5083,0,0,0,0,0,0,0,0,3.479,3.4806,3.4919,3.4917,3.4915,3.4978,3.4992,3.5109,3.4948,3.4934,3.4933,3.4926,3.5021,3.5031,3.5062,3.5232,3.5236,3.5079,3.5085,3.5089,3.5092,0,0,0,0,0,0,0,3.4783,3.4801,3.499,3.4921,3.4918,3.4894,3.4903,3.5014,3.501,3.4934,3.4927,3.4939,3.5019,3.5053,3.5064,3.5238,3.5079,3.5088,3.5094,3.5097,3.5559,3.5565,0,0,0,0,0,0,3.4779,3.4796,3.4987,3.4993,3.4836,3.4904,3.4913,3.4964,3.5008,3.5009,3.4944,3.4934,3.5039,3.5052,3.5067,3.5278,3.5089,3.5098,3.5104,3.5553,3.5561,3.5568,0,0,0,0,0,0,3.4774,3.4797,3.4983,3.4892,3.4914,3.4915,3.4972,3.4969,3.5002,3.5015,3.5015,3.4979,3.5035,3.5053,3.5188,3.528,3.5103,3.5111,3.5545,3.5555,3.5564,3.5702,0,0,0,0,0,0,3.4767,3.4796,3.4862,3.4894,3.4919,3.5101,3.4978,3.4975,3.5018,3.5006,3.5048,3.505,3.5032,3.5174,3.5197,3.529,3.5119,3.5537,3.5549,3.5561,3.5689,3.5715,3.5738,0,0,0,0,0,3.4758,3.4898,3.4866,3.489,3.5002,3.5107,3.5121,3.5096,3.5026,3.5094,3.5102,3.5048,3.5266,3.5189,3.5214,3.5311,3.5531,3.5546,3.556,3.5679,3.571,3.5737,0,0,0,0,0,0,3.4878,3.4902,3.4866,3.5021,3.5062,3.5089,3.5173,3.5131,3.5194,3.518,3.5148,3.5159,3.5302,3.532,3.5233,3.5486,3.5387,3.5408,3.5469,3.5499,3.5523,3.5516,3.5127,0,0,0,0,0,3.4923,3.5004,3.5021,3.5156,3.5178,3.5173,3.5217,3.5195,3.5237,3.5254,3.5273,3.5318,3.5396,3.5449,3.5522,3.5692,3.57,3.5771,3.5795,3.5815,3.5833,3.5925,3.5957,3.5616,3.5616,3.5615,0,0,3.5016,3.5039,3.5092,3.5181,3.521,3.5297,3.5188,3.5284,3.5349,3.527,3.5397,3.5413,3.5461,3.5614,3.5682,3.5633,3.5929,3.5834,3.5849,3.5857,3.5944,3.5976,3.6005,3.5626,3.5624,3.5622,0,0,3.5229,3.5254,3.5369,3.5401,3.5446,3.5442,3.547,3.5503,3.551,3.5637,3.5579,3.5657,3.5793,3.5829,3.5866,3.6094,3.6047,3.6119,3.6246,3.6336,3.6363,3.6386,3.6468,3.6498,3.6137,3.6138,3.6138,0,3.5339,3.5465,3.5435,3.5535,3.5576,3.5507,3.5625,3.5658,3.5726,3.5757,3.5701,3.587,3.5897,3.6058,3.6114,3.6146,3.6178,3.6114,3.6361,3.6384,3.6406,3.6484,3.6515,3.6146,3.6145,3.6144,3.6143,0,3.5599,3.5688,3.5776,3.5842,3.5893,3.6002,3.5989,3.6045,3.6019,3.6021,3.6152,3.6182,3.6261,3.6297,3.6273,3.6456,3.6424,3.6365,3.6265,3.6448,3.652,3.655,3.6158,3.6155,3.6153,3.615,0,0,3.589,3.5937,3.597,3.5999,3.6045,3.6114,3.6221,3.6295,3.6345,3.6394,3.6484,3.66,3.6546,3.6588,3.6567,3.6646,3.6826,3.6578,3.6579,3.6623,3.703,3.7074,3.7109,3.6795,3.6801,3.6805,3.7026,0,3.6104,3.6286,3.6262,3.6438,3.6521,3.6457,3.655,3.6589,3.6594,3.6667,3.6673,3.6756,3.6678,3.6703,3.6778,3.6788,3.6907,3.6772,3.6879,3.6884,3.6869,3.7147,3.7193,3.74,3.7054,3.7059,3.7063,0,3.6378,3.6436,3.662,3.6653,3.6687,3.6771,3.6838,3.6907,3.6951,3.6949,3.6996,3.6962,3.707,3.6968,3.7118,3.7027,3.7069,3.7081,3.7089,3.7098,3.6984,3.7164,3.7466,3.7497,3.7107,3.7103,3.71,0,3.6572,3.6696,3.6822,3.685,3.6892,3.6952,3.6973,3.7011,3.7058,3.7117,3.7147,3.722,3.7259,3.7317,3.7303,3.723,3.7457,3.7354,3.746,3.746,3.751,3.7507,3.7823,3.7538,3.7538,3.7537,3.7536,0,3.6813,3.6929,3.691,3.6988,3.7115,3.7088,3.7215,3.7229,3.7263,3.7343,3.7294,3.737,3.7348,3.7424,3.7415,3.7541,3.7559,3.7562,3.7558,3.7566,3.7566,3.7594,3.7579,3.7545,3.7543,3.7542,3.754,0,3.7051,3.7044,3.7177,3.7206,3.7216,3.7309,3.7334,3.7409,3.741,3.7512,3.7535,3.7537,3.7625,3.7617,3.7716,3.7709,3.7865,3.7844,3.785,3.7846,3.7952,3.7942,3.8297,3.8342,3.8028,3.8031,3.8033,0,3.7206,3.7292,3.7331,3.738,3.7405,3.7486,3.7533,3.751,3.7562,3.7619,3.7686,3.7769,3.7833,3.7976,3.7988,3.8064,3.8044,3.8164,3.8056,3.8061,3.8047,3.8042,3.805,3.8185,3.8189,3.8191,3.8194,0,3.7481,3.7473,3.7542,3.7611,3.7668,3.7722,3.777,3.7814,3.7796,3.7857,3.7945,3.7995,3.8096,3.8179,3.8251,3.8273,3.8232,3.8228,3.8256,3.8266,3.8265,3.8267,3.7908,3.822,3.8217,3.8215,3.8214,3.8213,3.7682,3.7756,3.7795,3.7874,3.7908,3.7955,3.8025,3.8035,3.8108,3.8187,3.8169,3.8269,3.8312,3.8404,3.8434,3.8513,3.847,3.8511,3.8521,3.8532,3.8544,3.8253,3.8526,3.8525,3.8524,3.8524,3.8523,0,3.7954,3.7976,3.8049,3.8118,3.8181,3.8135,3.8186,3.8242,3.833,3.8373,3.8438,3.854,3.862,3.8639,3.8716,3.8776,3.8759,3.8797,3.8792,3.8798,3.8578,3.8546,3.8809,3.8809,3.8809,3.8809,3.8809,3.8809,3.8103,3.8227,3.8224,3.8365,3.8386,3.8482,3.8516,3.8559,3.8593,3.8709,3.8775,3.8786,3.882,3.8899,3.8972,3.8975,3.9006,3.9052,3.9049,3.8842,3.8814,3.8787,3.8756,3.9059,3.906,3.9262,3.9264,3.9265]},{"header":{"parameterUnit":"m.s-1","parameterCategory":1,"la1":30.2991,"la2":30.254,"lo1":-89.0895,"lo2":-89.0444,"dy":0.0017,"dx":0.0017,"nx":28,"ny":28,"refTime":"2025-06-09T03:00:00:Z","depth":0,"parameterNumber":3,"parameterNumberName":"V-component_of_WINDS"},"data":[0,0,0,0,0,0,0,0,0,0,0,0,0,0,0,0,0,0,0,0,0,0,0,0,0,0,0,0,0,0,0,0,0,0,0,0,0,0,0,0,0,0,0,0,0,0,0,0,0,0,0,0,0,0,0,0,0,0,5.9657,5.9659,0,5.9825,5.9827,5.9829,5.9769,5.9765,5.9762,5.9758,5.9924,5.9931,5.9939,0,0,0,0,0,0,0,0,0,0,0,0,0,5.9277,5.9285,5.9657,5.9659,5.9661,5.9825,5.9827,5.9829,5.977,5.9765,5.9761,5.9756,5.9921,5.993,5.994,0,0,0,0,0,0,0,0,0,0,0,0,0,5.9443,5.9287,5.9657,5.9651,5.9653,5.9824,5.9827,5.983,5.9771,5.9765,5.9759,5.9754,5.9918,5.9929,5.9941,6.0126,0,0,5.9977,5.9982,0,0,0,0,0,0,0,0,5.9434,5.9457,5.965,5.9652,5.9654,5.977,5.9754,5.9929,5.9772,5.9726,5.9758,5.9751,5.9877,5.9892,5.9935,6.0134,6.0141,5.9978,5.9985,5.999,5.9994,0,0,0,0,0,0,0,5.9422,5.945,5.9723,5.9653,5.9655,5.9638,5.9655,5.9787,5.983,5.9729,5.9725,5.9746,5.9877,5.9924,5.9939,6.0143,5.9978,5.9988,5.9996,6.0,6.0499,6.0504,0,0,0,0,0,0,5.9411,5.944,5.9718,5.9728,5.9528,5.9649,5.9669,5.9738,5.9829,5.9837,5.9751,5.9743,5.9906,5.9925,5.9944,6.0165,5.999,6.0001,6.0008,6.0492,6.05,6.0506,0,0,0,0,0,0,5.9403,5.9436,5.9711,5.9583,5.9617,5.9662,5.9741,5.9745,5.9792,5.9845,5.9852,5.9792,5.9903,5.9927,6.0081,6.017,6.0007,6.0018,6.0485,6.0495,6.0503,6.061,0,0,0,0,0,0,5.9393,5.9434,5.9507,5.9586,5.9624,5.9848,5.9746,5.9752,5.9813,5.9805,5.9885,5.9893,5.99,6.0064,6.0093,6.0183,6.0027,6.0477,6.0489,6.05,6.0598,6.0621,6.0641,0,0,0,0,0,5.9379,5.9529,5.9511,5.9545,5.9717,5.9853,5.9875,5.9882,5.9821,5.9893,5.9927,5.9891,6.0156,6.008,6.0112,6.0208,6.0472,6.0486,6.0499,6.0589,6.0617,6.064,0,0,0,0,0,0,5.9458,5.954,5.952,5.9701,5.9771,5.9843,5.9935,5.9912,5.9999,5.9987,5.9989,6.0008,6.0166,6.0202,6.0116,6.039,6.0304,6.0325,6.0361,6.0388,6.0409,6.0397,6.0037,0,0,0,0,0,5.9497,5.9604,5.9668,5.9821,5.9857,5.989,5.995,5.9949,6.0021,6.0049,6.0094,6.0164,6.0262,6.0327,6.042,6.0603,6.0618,6.0684,6.0705,6.0722,6.074,6.0837,6.0867,6.0552,6.0552,6.0552,0,0,5.9578,5.9635,5.9702,5.9838,5.9892,6.0,5.9915,6.0033,6.0113,6.0067,6.0215,6.025,6.0327,6.0495,6.0571,6.053,6.0831,6.074,6.0753,6.0762,6.0854,6.0884,6.0911,6.0561,6.056,6.0558,0,0,5.978,5.9835,5.9968,6.0024,6.0107,6.0128,6.0159,6.0235,6.0257,6.0406,6.0373,6.0466,6.0636,6.0692,6.0742,6.0963,6.0932,6.0993,6.1104,6.1199,6.1223,6.1245,6.1323,6.1351,6.101,6.1011,6.1011,0,5.9869,6.0033,6.0038,6.0159,6.0219,6.0183,6.0316,6.0369,6.0478,6.0519,6.0471,6.0683,6.0732,6.0912,6.0966,6.1008,6.1042,6.0984,6.122,6.1242,6.1262,6.1336,6.1365,6.1018,6.1017,6.1016,6.1015,0,6.0137,6.0251,6.0347,6.0455,6.0525,6.0652,6.0674,6.0744,6.0736,6.076,6.091,6.0968,6.1072,6.1114,6.1108,6.1293,6.1264,6.1218,6.1132,6.1299,6.1368,6.1397,6.1027,6.1025,6.1023,6.1021,0,0,6.0395,6.0504,6.0539,6.0587,6.0675,6.0762,6.0884,6.0988,6.1047,6.1122,6.1224,6.1368,6.1325,6.1383,6.1381,6.1464,6.1633,6.1407,6.1409,6.1447,6.1838,6.1872,6.1905,6.1613,6.1618,6.1622,6.1831,0,6.0604,6.0823,6.083,6.1029,6.1132,6.1099,6.1205,6.1269,6.1295,6.1384,6.1411,6.1513,6.145,6.1484,6.1564,6.1595,6.1711,6.158,6.1705,6.171,6.1687,6.1942,6.1979,6.2173,6.1858,6.1863,6.1866,0,6.0877,6.0963,6.1173,6.1244,6.1288,6.1384,6.1478,6.1565,6.1635,6.1647,6.1711,6.1697,6.1819,6.1729,6.1896,6.1806,6.1857,6.188,6.1887,6.19,6.1798,6.196,6.2236,6.2265,6.1909,6.1906,6.1903,0,6.1044,6.1211,6.1358,6.1399,6.1487,6.1555,6.1594,6.1659,6.172,6.1801,6.184,6.1934,6.1985,6.2056,6.2066,6.2,6.2233,6.2144,6.2245,6.2245,6.2296,6.2293,6.2584,6.233,6.2329,6.2329,6.2328,0,6.1276,6.1405,6.1433,6.1524,6.1666,6.1672,6.1812,6.1845,6.1903,6.1997,6.1972,6.206,6.2068,6.2158,6.2166,6.2302,6.2325,6.2337,6.2338,6.234,6.2338,6.2373,6.236,6.2336,6.2335,6.2333,6.2332,0,6.1487,6.1511,6.1668,6.1738,6.1758,6.186,6.1919,6.2003,6.2025,6.2144,6.2172,6.2206,6.2311,6.2328,6.2449,6.2455,6.2617,6.2604,6.2595,6.2593,6.2693,6.2683,6.3016,6.306,6.2777,6.278,6.2782,0,6.1634,6.1732,6.1813,6.1875,6.1918,6.2018,6.208,6.2088,6.2153,6.2239,6.2313,6.2415,6.2497,6.2664,6.2698,6.2791,6.2779,6.2889,6.2793,6.2791,6.278,6.2774,6.2783,6.2908,6.2911,6.2914,6.2916,0,6.1891,6.1898,6.199,6.2086,6.2161,6.2236,6.2307,6.2358,6.2374,6.2448,6.2555,6.2619,6.2744,6.2844,6.2936,6.2972,6.2947,6.2946,6.2974,6.2977,6.2967,6.2973,6.2645,6.2938,6.2936,6.2934,6.2933,6.2932,6.2074,6.216,6.223,6.2332,6.2386,6.2452,6.2535,6.2567,6.2658,6.2761,6.2759,6.2876,6.2941,6.3061,6.3104,6.3194,6.3158,6.3199,6.3209,6.3219,6.3229,6.2953,6.321,6.321,6.3209,6.3209,6.3208,0,6.233,6.2373,6.2467,6.2568,6.2647,6.2617,6.2693,6.2761,6.2865,6.2929,6.301,6.3132,6.3229,6.327,6.3364,6.3428,6.3418,6.3452,6.3448,6.3456,6.3256,6.3222,6.3459,6.3459,6.3458,6.3458,6.3458,6.3458,6.2473,6.2616,6.263,6.2798,6.2839,6.2956,6.3001,6.3061,6.3112,6.325,6.3331,6.3358,6.3411,6.3509,6.3596,6.3605,6.364,6.368,6.3684,6.3496,6.3471,6.3447,6.3415,6.3688,6.3688,6.3877,6.3878,6.388]}]]